Weather History for Ft Riley, KS

Change the Weather History Date:

Wednesday, August 13, 2014

  Actual Average (KMHK) Record (KMHK)
Temperature  
Mean Temperature 72 °F 78 °F  
Max Temperature 89 °F 90 °F 106 °F (2010)
Min Temperature 57 °F 66 °F 50 °F (2004)
Degree Days  
Heating Degree Days 0 0  
Month to date heating degree days 0  
Since 1 June heating degree days 12  
Since 1 July heating degree days 1  
Cooling Degree Days 6 13  
Month to date cooling degree days 177  
Year to date cooling degree days 983  
Since 1 June cooling degree days 883  
Growing Degree Days 22 (Base 50)    
Moisture  
Dew Point 56 °F    
Average Humidity 58    
Maximum Humidity 88    
Minimum Humidity 31    
Precipitation  
Precipitation 0.00 in 0.14 in 1.01 in (2002)
Month to date precipitation 1.42  
Year to date precipitation 21.68  
Sea Level Pressure  
Sea Level Pressure 30.10 in    
Wind  
Wind Speed 4 mph (East)    
Max Wind Speed 8 mph    
Max Gust Speed -    
Visibility 8 miles    
Events      
T = Trace of Precipitation, MM = Missing Value Source: NWS Daily Summary

Daily Weather History Graph

Daily Weather History Graph

Search for Another Location

Airport:

Trip Planner

Search our weather history database for the weather conditions in past years. The results will help you decide how hot, cold, wet, or windy it might be!

Date:

Astronomy

Aug. 13, 2014 Rise Set
Actual Time 6:38 AM CDT 8:24 PM CDT
Civil Twilight 6:09 AM CDT 8:53 PM CDT
Nautical Twilight 5:35 AM CDT 9:27 PM CDT
Astronomical Twilight 4:57 AM CDT 10:04 PM CDT
Moon 10:12 PM CDT (8/13) 10:05 AM CDT (8/13)
Length of Visible Light 14h 43m
Length of Day
13h 46m
Waning Gibbous, 87% of the Moon is Illuminated
Aug 13
Waning Gibbous
Aug 17
Last Quarter
Aug 25
New
Sep 2
First Quarter
Sep 8
Full

Hourly Weather History & Observations

Time (CDT) Temp. Heat Index Dew Point Humidity Pressure Visibility Wind Dir Wind Speed Gust Speed Precip Events Conditions
12:55 AM 63.9 °F - 56.7 °F 77% 30.12 in 10.0 mi North 1.2 mph - N/A   Clear
1:58 AM 62.6 °F - 55.4 °F 77% 30.13 in 7.0 mi NE 5.8 mph - N/A   Clear
2:55 AM 59.9 °F - 54.9 °F 83% 30.14 in 7.0 mi Calm Calm - N/A   Clear
3:55 AM 58.5 °F - 54.9 °F 88% 30.15 in 7.0 mi East 2.3 mph - N/A   Clear
4:55 AM 58.5 °F - 54.9 °F 88% 30.15 in 7.0 mi NE 2.3 mph - N/A   Clear
5:55 AM 57.7 °F - 54.1 °F 88% 30.15 in 7.0 mi NNE 2.3 mph - N/A   Clear
6:55 AM 57.9 °F - 54.3 °F 88% 30.17 in 7.0 mi NE 2.3 mph - N/A   Clear
7:58 AM 62.4 °F - 55.2 °F 77% 30.17 in 7.0 mi ENE 2.3 mph - N/A   Clear
8:55 AM 67.3 °F - 58.3 °F 73% 30.16 in 7.0 mi ENE 3.5 mph - N/A   Clear
9:55 AM 74.3 °F - 55.4 °F 52% 30.13 in 7.0 mi SE 5.8 mph - N/A   Clear
10:56 AM 77.9 °F - 53.6 °F 43% 30.13 in 7.0 mi SE 5.8 mph - N/A   Clear
10:57 AM 77.9 °F - 53.6 °F 43% 30.13 in 7.0 mi SE 5.8 mph - N/A   Clear
11:57 AM 80.6 °F 80.4 °F 54.0 °F 40% 30.12 in 7.0 mi SSE 5.8 mph - N/A   Clear
12:59 PM 82.8 °F 81.7 °F 54.1 °F 37% 30.10 in 7.0 mi SSE 5.8 mph - N/A   Clear
1:55 PM 84.2 °F 83.2 °F 56.1 °F 38% 30.09 in 7.0 mi Variable 3.5 mph - N/A   Clear
2:59 PM 85.6 °F - 52.3 °F 32% 30.07 in 7.0 mi SE 5.8 mph - N/A   Clear
3:55 PM 86.9 °F - 52.5 °F 31% 30.05 in 7.0 mi ESE 5.8 mph - N/A   Clear
4:55 PM 86.0 °F 84.9 °F 57.2 °F 37% 30.03 in 10.0 mi NNE 8.1 mph - N/A   Clear
5:55 PM 86.0 °F 84.5 °F 55.4 °F 35% 30.02 in 10.0 mi Variable 6.9 mph - N/A   Clear
6:55 PM 84.2 °F 83.0 °F 55.4 °F 37% 30.02 in 10.0 mi ENE 5.8 mph - N/A   Clear
7:55 PM 80.6 °F 80.8 °F 57.2 °F 45% 30.01 in 10.0 mi East 5.8 mph - N/A   Clear
8:55 PM 77.0 °F - 60.8 °F 57% 30.02 in 10.0 mi ENE 5.8 mph - N/A   Clear
9:55 PM 73.4 °F - 60.8 °F 65% 30.04 in 10.0 mi East 4.6 mph - N/A   Clear
11:55 PM 71.6 °F - 55.4 °F 57% 30.04 in 10.0 mi East 5.8 mph - N/A   Clear